This is the latest recevied weather packets stored in our database for station/object LU3MCV-13. If no packets are shown the sender has not sent any weather packets the latest 10 day(s).
| Time | Temp. | Humidity | Pressure | Rain* | Wind** | Luminosity | Snow |
|---|---|---|---|---|---|---|---|
| 1777206352 | 12.22° C | 24% | 937.5 hPa | - | - | - | - |
| 1777205452 | 12.22° C | 24% | 937.1 hPa | - | - | - | - |
| 1777204552 | 12.22° C | 24% | 936.8 hPa | - | - | - | - |
| 1777203652 | 12.22° C | 24% | 936.6 hPa | - | - | - | - |
| 1777202752 | 12.22° C | 24% | 936.4 hPa | - | - | - | - |
| 1777201852 | 12.22° C | 24% | 936.1 hPa | - | - | - | - |
| 1777200952 | 12.22° C | 24% | 935.9 hPa | - | - | - | - |
| 1777200054 | 12.22° C | 23% | 935.6 hPa | - | - | - | - |
| 1777199152 | 12.22° C | 23% | 935.2 hPa | - | - | - | - |
| 1777198252 | 12.22° C | 22% | 935 hPa | - | - | - | - |
| 1777197352 | 12.22° C | 21% | 934.7 hPa | - | - | - | - |
| 1777196453 | 12.78° C | 20% | 934.5 hPa | - | - | - | - |
| 1777195552 | 12.78° C | 20% | 934.3 hPa | - | - | - | - |
| 1777194652 | 12.78° C | 17% | 933.6 hPa | - | - | - | - |
| 1777193751 | 12.78° C | 16% | 933.2 hPa | - | - | - | - |
| 1777192852 | 12.78° C | 16% | 933 hPa | - | - | - | - |
| 1777191952 | 12.78° C | 16% | 932.8 hPa | - | - | - | - |
| 1777191052 | 13.89° C | 17% | 932.7 hPa | - | - | - | - |
| 1777190152 | 15° C | 10% | 932.2 hPa | - | - | - | - |
| 1777189251 | 15° C | 10% | 932.2 hPa | - | - | - | - |
| 1777188352 | 13.89° C | 16% | 932.2 hPa | - | - | - | - |
| 1777187451 | 13.89° C | 17% | 932.2 hPa | - | - | - | - |
| 1777186551 | 13.89° C | 20% | 932.1 hPa | - | - | - | - |
| 1777185651 | 12.78° C | 25% | 932 hPa | - | - | - | - |
| 1777184752 | 12.22° C | 31% | 932.2 hPa | - | - | - | - |
* Rain since midnight (hover to see other rain measurements)
** Current wind speed in m/s (hover to see current wind gust speed)